#timestamp,LO_Frequency,Hit,StdDev 
1634068815.6,286047008.1,N
1634068835.4,286047012.5,Y
1634068855.3,286047010.0,P
1634068875.1,286047010.2,P
1634068895.9,286047007.8,N
1634068915.7,286047012.4,Y
1634068935.5,286047003.5,P
1634068955.4,286047004.0,N
1634068975.2,286047003.5,N
1634068995.1,286047005.9,Y
1634068996.0,286047005.9,P
1634069015.8,286046996.6,P
1634069035.6,286046999.1,N
1634069055.5,286047000.7,N
1634069075.3,286047002.3,N
1634069095.1,286047001.9,N
1634069115.9,286047002.8,N
1634069135.7,286047000.1,N
1634069155.6,286047002.4,N
1634069175.4,286047001.3,N
1634069195.2,286047007.2,N
1634069215.1,286047008.3,N
1634069216.0,286047008.3,N
1634069235.8,286047006.1,N
1634069255.6,286047007.6,N
1634069275.5,286047008.2,N
1634069295.3,286047007.4,N
1634069315.2,286047006.8,N
1634069335.9,286047006.8,N
1634069355.7,286047006.7,N
1634069375.6,286047005.1,N
1634069395.4,286047002.5,N
1634069415.2,286047004.3,N
1634069435.1,286047002.9,N
1634069436.0,286047002.9,N
1634069455.8,286047007.1,N
1634069475.7,286047006.4,N
1634069495.5,286047006.3,N
1634069515.3,286047008.0,N
1634069535.2,286047008.5,N
1634069555.0,286047010.8,Y
1634069555.9,286047010.8,P
1634069575.8,286047005.4,N
1634069595.6,286047007.2,N
1634069615.4,286047007.1,N
1634069635.3,286047004.5,N
1634069655.1,286047006.8,Y
1634069675.8,286047003.2,P
1634069695.7,286047006.4,P
1634069715.5,286047009.2,P
1634069735.4,286047007.3,Y
1634069755.2,286046998.2,P
1634069775.0,286046997.7,N
1634069775.9,286046997.7,N
1634069795.8,286046995.9,N
1634069815.6,286046997.5,N
1634069835.4,286046999.0,N
1634069855.3,286046999.5,N
1634069875.1,286046997.1,N
1634069895.9,286046997.1,N
1634069915.7,286046995.3,N
1634069935.5,286046996.9,N
1634069955.4,286047000.1,N
1634069975.2,286047000.7,N
1634069995.0,286047001.7,N
1634069995.9,286047001.7,N
1634070015.8,286046997.0,N
1634070035.6,286046997.7,N
1634070055.5,286046996.8,N
1634070075.3,286046999.0,N
1634070095.1,286047002.7,N
1634070115.9,286047002.4,N
1634070135.7,286047004.4,N
1634070155.5,286047003.1,N
1634070175.4,286047005.6,N
1634070195.2,286047004.9,N
1634070215.1,286047001.9,N
1634070216.0,286047001.9,N
1634070235.8,286047000.6,N
1634070255.6,286046996.5,N
1634070275.5,286046999.3,N
1634070295.3,286046996.5,N
1634070315.1,286046998.7,N
1634070335.9,286047002.3,N
1634070355.7,286047004.0,N
1634070375.6,286047001.7,N
1634070395.4,286047001.0,N
1634070415.2,286047002.8,N
1634070435.1,286047003.8,N
1634070436.0,286047003.8,N
1634070455.8,286047006.0,N
1634070475.7,286047003.8,N
1634070495.5,286047003.3,N
1634070515.3,286047007.0,N
1634070535.2,286047004.5,N
1634070555.9,286046997.0,N
1634070575.7,286046995.6,N
1634070595.6,286046995.5,N
1634070615.4,286046999.5,N
1634070635.2,286046997.5,N
1634070655.1,286046995.0,N
1634070656.0,286046995.0,N
1634070675.8,286046997.4,N
1634070695.7,286046996.6,N
1634070715.5,286047004.0,N
1634070735.3,286047006.0,N
1634070755.2,286047005.6,N
1634070775.0,286047003.2,N
1634070775.9,286047003.2,N
1634070795.8,286047007.1,N
1634070815.6,286047009.1,N
1634070835.4,286047009.2,N
1634070855.3,286047008.0,N
1634070875.1,286047009.6,N
1634070895.8,286047015.3,Y
1634070915.7,286047009.9,P
1634070935.5,286047009.7,N
1634070955.4,286047011.9,P
1634070975.2,286047011.4,Y
1634070995.0,286047003.9,P
1634070995.9,286047003.9,N
1634071015.8,286047005.4,N
1634071035.6,286047006.1,Y
1634071055.4,286047009.1,P
1634071075.3,286047007.1,P
1634071095.1,286047003.3,N
1634071115.9,286047003.3,N
1634071135.7,286047004.5,N
1634071155.5,286047006.4,Y
1634071175.4,286047002.6,P
1634071195.2,286047001.3,N
1634071215.0,286047000.3,N
1634071216.0,286047000.3,N
1634071235.8,286047004.2,N
1634071255.6,286047003.8,N
1634071275.5,286047005.2,N
1634071295.3,286047007.5,Y
1634071315.1,286047003.4,P
1634071335.9,286047000.0,N
1634071355.7,286046996.8,N
1634071375.6,286046997.3,N
1634071395.4,286046995.5,N
1634071415.3,286046993.5,N
1634071435.1,286046994.3,N
1634071455.9,286046991.5,N
1634071475.7,286046993.4,N
1634071495.5,286046997.4,N
1634071515.4,286046997.7,N
1634071535.2,286046995.9,N
1634071555.0,286046995.6,N
1634071555.9,286046995.6,N
1634071575.8,286046997.9,N
1634071595.6,286046996.1,N
1634071615.5,286046999.4,N
1634071635.3,286047000.8,N
1634071655.1,286047000.3,N
1634071675.9,286047003.8,N
1634071695.7,286047005.6,N
1634071715.5,286047005.7,N
1634071735.4,286047003.7,N
1634071755.2,286047005.5,N
1634071775.1,286047005.8,N
1634071776.0,286047005.8,N
1634071795.8,286047005.8,N
1634071815.6,286047005.3,N
1634071835.5,286047007.4,N
1634071855.3,286047007.9,N
1634071875.1,286047009.3,N
1634071895.9,286047013.3,N
1634071915.7,286047014.1,N
1634071935.6,286047015.3,N
1634071955.4,286047011.5,N
1634071975.2,286047011.0,N
1634071995.1,286047013.6,N
1634071996.0,286047013.6,N
1634072015.8,286047011.3,N
1634072035.6,286047016.4,N
1634072055.5,286047018.1,N
1634072075.3,286047020.0,Y
1634072095.2,286047012.7,P
1634072115.9,286047013.1,P
1634072135.7,286047015.6,P
1634072155.6,286047014.9,Y
1634072175.4,286047004.1,P
1634072195.3,286047004.2,N
1634072215.1,286047004.7,N
1634072216.0,286047004.7,N
1634072235.8,286047005.6,N
1634072255.7,286047005.0,N
1634072275.5,286047010.7,Y
1634072295.4,286047009.0,P
1634072315.2,286047009.9,P
1634072335.0,286047012.0,P
1634072335.9,286047012.0,Y
1634072355.8,286047001.4,P
1634072375.6,286047005.1,N
1634072395.4,286047007.6,N
